Location: Winthrop
(48.4780°N, 120.1850°W)
Time: 02:53:23
(UTC-07:00)

XW-2A - Pass Details

Date: 19 May 2022
Orbit: 398 x 413 km, 97.2° (Epoch: 27 June)

Event Time Altitude Azimuth Distance (km) Brightness Sun altitude
Exits shadow 22:32:52 - 207° (SSW) 1,564 ? -14.3°
Reaches altitude 10° 22:33:02 10° 209° (SSW) 1,504 ? -14.3°
Maximum altitude 22:35:42 24° 265° (W) 937 ? -14.6°
Drops below altitude 10° 22:38:23 10° 321° (NW) 1,517 ? -14.8°
Sets 22:40:40 0° 336° (NNW) 2,387 ? -15.1°
